Bergen Flesland current weather conditions

sailwx.info

Wind from 320 at 9 knots

Air temperature 4.0° C
Visibility: greater than 5.4 NM
Dewpoint -0.0° C

Last reported at 2019-Dec-07 10:20 UTC.
Time now 2019-Dec-07 11:35 UTC

Location: N 60°18' E 005°13'.
View on Google Maps.

See reports from other nearby stations

  
Tides and Currents Weather Stations Pressure Air Temp Water Temp Dewpoint Dewpoint Depression Visibility Wind Speed Wind Dir Waves Ship Positions
date/time (UTC)wind fromknots sea level pressurealtimeterstation pressurevisibilityair tempwater tempwave heightnotes
2019-Dec-07 10:20 320 9 5.4 4.0
2019-Dec-07 09:50 330 13 5.4 4.0 Showers in the vicinity.
2019-Dec-07 09:20 310 9 5.4 4.0
2019-Dec-07 08:50 310 13 5.4 4.0
2019-Dec-07 08:20 320 12 gusting 21 5.4 4.0 Showers in the vicinity.
2019-Dec-07 07:50 320 11 5.4 4.0
2019-Dec-07 07:20 320 13 5.4 4.0
2019-Dec-07 06:50 320 7 5.4 3.0 Showers in the vicinity.
2019-Dec-07 06:20 060 4 5.4 2.0 Showers in the vicinity.
2019-Dec-07 05:50 5.4 2.0 Showers in the vicinity.
2019-Dec-07 05:20 5.4 2.0 Showers in the vicinity.
2019-Dec-07 04:50 5.4 2.0 Showers in the vicinity.
2019-Dec-07 03:50 330 6 5.4 3.0 Showers in the vicinity.
2019-Dec-07 02:50 5.4 3.0 Showers in the vicinity.
2019-Dec-07 01:50 5.4 3.0
2019-Dec-07 00:50 300 6 5.4 4.0 Rain.
2019-Dec-06 23:50 5.4 4.0
2019-Dec-06 22:50 350 4 5.4 4.0
2019-Dec-06 22:20 350 5 5.4 4.0
2019-Dec-06 21:50 350 6 5.4 4.0 Light drizzle.
2019-Dec-06 21:20 020 4 5.4 4.0 Light rain.
2019-Dec-06 20:50 360 4 5.4 4.0 Light rain.
2019-Dec-06 20:20 330 5 5.4 5.0 Light rain.
2019-Dec-06 19:50 350 2 5.4 5.0 Light rain.
2019-Dec-06 19:20 010 2 1.9 5.0 Light drizzle. Mist.
2019-Dec-06 18:50 020 1 1.9 5.0 Drizzle. Mist.
2019-Dec-06 18:20 2.7 5.0 Light drizzle. Mist.
2019-Dec-06 17:50 060 2 2.7 5.0 Light drizzle. Mist.
2019-Dec-06 17:20 010 5 1.1 5.0 Drizzle. Mist.
2019-Dec-06 16:50 020 2 1.1 5.0 Light drizzle. Mist.
2019-Dec-06 16:20 030 2 1.1 5.0 Light drizzle. Mist.
2019-Dec-06 15:50 040 4 1.1 5.0 Light drizzle. Mist.
2019-Dec-06 15:20 050 1 1.3 5.0 Light drizzle. Mist.
2019-Dec-06 14:50 080 1 1.3 5.0 Light drizzle. Mist.
2019-Dec-06 14:20 090 2 1.1 5.0 Light drizzle. Mist.
2019-Dec-06 13:50 100 1 1.1 5.0 Light drizzle. Mist.
2019-Dec-06 13:20 120 2 2.2 5.0 Light drizzle. Mist.
2019-Dec-06 12:50 4.9 5.0 Light drizzle.
2019-Dec-06 12:20 5.4 5.0 Light rain drizzle.
2019-Dec-06 11:50 5.4 5.0 Showers in the vicinity.
2019-Dec-06 11:20 5.4 5.0 Light rain.
2019-Dec-06 10:50 200 5 5.4 5.0 Light rain.
2019-Dec-06 10:20 210 6 5.4 5.0 Light rain.
2019-Dec-06 09:50 130 4 5.4 5.0 Light drizzle.
2019-Dec-06 09:20 5.4 5.0 Showers in the vicinity.
2019-Dec-06 08:50 270 4 5.4 5.0 Light rain showers.
2019-Dec-06 08:20 250 4 5.4 6.0
2019-Dec-06 07:50 5.4 6.0 Light rain showers.
2019-Dec-06 07:20 210 5 5.4 6.0
2019-Dec-06 06:50 160 2 5.4 4.0 Light rain showers.
2019-Dec-06 06:20 150 2 5.4 4.0
2019-Dec-06 05:50 5.4 4.0
2019-Dec-06 05:20 300 5 5.4 5.0
2019-Dec-06 04:50 310 6 5.4 6.0 Light rain.
2019-Dec-06 04:20 300 6 5.4 6.0
2019-Dec-06 03:50 320 7 4.9 6.0 Light rain.
2019-Dec-06 02:50 310 8 5.4 6.0
2019-Dec-06 01:50 320 12 5.4 7.0 Light rain.
2019-Dec-06 00:50 220 5 5.4 7.0 Light rain drizzle.
2019-Dec-05 23:50 220 6 4.9 7.0 Light rain drizzle.
2019-Dec-05 22:50 170 12 4.9 7.0 Light rain drizzle.
2019-Dec-05 22:20 180 9 4.3 7.0 Light rain drizzle.
2019-Dec-05 21:50 200 13 4.3 7.0 Light rain drizzle.
2019-Dec-05 21:20 190 15 4.9 7.0 Light rain.
2019-Dec-05 20:50 200 15 4.9 7.0 Light rain drizzle.
2019-Dec-05 20:20 210 15 4.9 7.0 Light rain drizzle.
2019-Dec-05 19:50 210 17 4.9 8.0 Light rain.
2019-Dec-05 19:20 220 19 4.9 7.0 Light rain showers.
2019-Dec-05 18:50 220 20 4.9 7.0 Light rain showers.
2019-Dec-05 18:20 230 21 gusting 33 4.3 8.0 Rain showers.
2019-Dec-05 17:50 230 24 gusting 34 4.3 8.0 Rain showers.
2019-Dec-05 17:20 230 22 4.3 8.0 Rain showers.
2019-Dec-05 16:50 230 21 gusting 33 4.9 8.0 Rain showers.
2019-Dec-05 16:20 220 24 gusting 36 4.9 8.0 Rain showers.
2019-Dec-05 15:50 230 25 gusting 41 3.8 8.0 Light rain showers.
2019-Dec-05 15:20 230 19 3.2 8.0 Light rain showers.
2019-Dec-05 14:50 240 18 3.2 7.0 Light rain showers.
2019-Dec-05 14:20 240 14 1.9 7.0 Light rain showers. Mist.
2019-Dec-05 13:50 240 20 gusting 31 4.3 7.0 Light rain showers.
2019-Dec-05 13:20 230 20 5.4 8.0
2019-Dec-05 12:50 240 18 5.4 6.0 Light drizzle.
2019-Dec-05 12:20 230 22 4.9 7.0 Rain showers.
2019-Dec-05 11:50 230 26 gusting 38 5.4 7.0 Showers in the vicinity.